Location: Asheville, NC
(35.6000°N, 82.5500°W)
Time: 12:50:35
(UTC-04:00)

Vanguard 2 - Pass Details

Date: 12 December 2017
Orbit: 553 x 2939 km, 32.9° (Epoch: 17 June)

Event Time Altitude Azimuth Distance (km) Brightness Sun altitude
Rises 20:07:45 0° 273° (W) 2,921 11.6 -33.7°
Reaches altitude 10° 20:10:17 10° 264° (W) 1,888 10.4 -34.2°
Enters shadow 20:11:29 17° 256° (WSW) 1,434 9.6 -34.5°
Maximum altitude 20:14:03 37° 196° (SSW) 861 - -35.0°
Drops below altitude 10° 20:17:50 10° 128° (SE) 1,888 - -35.8°
Sets 20:20:22 0° 119° (ESE) 2,920 - -36.3°
